Time,TemperatureF,DewpointF,PressureIn,WindDirection,WindDirectionDegrees,WindSpeedMPH,WindSpeedGustMPH,Humidity,HourlyPrecipIn,Conditions,Clouds,dailyrainin,SolarRadiationWatts/m^2,SoftwareType,DateUTC
2013-10-29 00:04:00,21.0,17.0,-100.00,West,279,0.0,3.0,86,0.00,,,0.00,0.000000,,2013-10-29 05:04:00,
2013-10-29 00:45:00,21.0,17.0,-100.00,West,279,0.0,3.0,86,0.00,,,0.00,0.000000,,2013-10-29 05:45:00,
2013-10-29 00:52:00,21.0,17.0,-100.00,West,279,0.0,3.0,86,0.00,,,0.00,0.000000,,2013-10-29 05:52:00,
2013-10-29 01:43:00,19.0,16.0,-100.00,WSW,246,0.0,2.0,86,0.00,,,0.00,0.000000,,2013-10-29 06:43:00,
2013-10-29 01:53:00,19.0,16.0,-100.00,WSW,246,0.0,2.0,86,0.00,,,0.00,0.000000,,2013-10-29 06:53:00,
2013-10-29 02:01:00,19.0,16.0,-100.00,WSW,246,0.0,2.0,86,0.00,,,0.00,0.000000,,2013-10-29 07:01:00,
2013-10-29 02:04:00,19.0,16.0,-100.00,WSW,245,1.0,4.0,86,0.00,,,0.00,0.000000,,2013-10-29 07:04:00,
2013-10-29 02:44:00,19.0,16.0,-100.00,WSW,245,1.0,4.0,86,0.00,,,0.00,0.000000,,2013-10-29 07:44:00,
2013-10-29 02:55:00,19.0,16.0,-100.00,WSW,245,1.0,4.0,86,0.00,,,0.00,0.000000,,2013-10-29 07:55:00,
2013-10-29 03:24:00,19.0,16.0,-100.00,SW,217,1.0,3.0,87,0.00,,,0.00,0.000000,,2013-10-29 08:24:00,
2013-10-29 03:32:00,19.0,16.0,-100.00,SW,217,1.0,3.0,87,0.00,,,0.00,0.000000,,2013-10-29 08:32:00,
2013-10-29 03:42:00,19.0,16.0,-100.00,SW,217,1.0,3.0,87,0.00,,,0.00,0.000000,,2013-10-29 08:42:00,
2013-10-29 03:52:00,19.0,16.0,-100.00,SW,217,1.0,3.0,87,0.00,,,0.00,0.000000,,2013-10-29 08:52:00,
2013-10-29 04:02:00,19.0,16.0,-100.00,SW,217,1.0,3.0,87,0.00,,,0.00,0.000000,,2013-10-29 09:02:00,
2013-10-29 04:43:00,17.0,14.0,-100.00,ESE,111,0.0,0.0,88,0.00,,,0.00,0.000000,,2013-10-29 09:43:00,
2013-10-29 04:53:00,17.0,14.0,-100.00,ESE,111,0.0,0.0,88,0.00,,,0.00,0.000000,,2013-10-29 09:53:00,
2013-10-29 05:03:00,17.0,14.0,-100.00,ESE,111,0.0,0.0,88,0.00,,,0.00,0.000000,,2013-10-29 10:03:00,
2013-10-29 05:42:00,16.0,13.0,-100.00,WNW,286,0.0,2.0,88,0.00,,,0.00,0.000000,,2013-10-29 10:42:00,
2013-10-29 05:53:00,16.0,13.0,-100.00,WNW,286,0.0,2.0,88,0.00,,,0.00,0.000000,,2013-10-29 10:53:00,
2013-10-29 06:03:00,16.0,13.0,-100.00,WNW,286,0.0,2.0,88,0.00,,,0.00,0.000000,,2013-10-29 11:03:00,
2013-10-29 06:42:00,15.0,12.0,-100.00,SE,131,0.0,0.0,86,0.00,,,0.00,0.000000,,2013-10-29 11:42:00,
2013-10-29 06:52:00,15.0,12.0,-100.00,SE,131,0.0,0.0,86,0.00,,,0.00,0.000000,,2013-10-29 11:52:00,
2013-10-29 07:01:00,15.0,12.0,-100.00,SE,131,0.0,0.0,86,0.00,,,0.00,0.000000,,2013-10-29 12:01:00,
2013-10-29 08:42:00,15.0,12.0,-100.00,SE,130,2.0,4.0,86,-99.99,,,0.00,2.000000,,2013-10-29 13:42:00,
2013-10-29 08:52:00,15.0,12.0,-100.00,SE,130,2.0,4.0,86,-99.99,,,0.00,2.000000,,2013-10-29 13:52:00,
2013-10-29 09:02:00,15.0,12.0,-100.00,SE,130,2.0,4.0,86,-99.99,,,0.00,2.000000,,2013-10-29 14:02:00,
2013-10-29 09:22:00,18.0,15.0,-100.00,NNW,328,0.0,2.0,87,0.00,,,0.00,61.000000,,2013-10-29 14:22:00,
2013-10-29 09:32:00,18.0,15.0,-100.00,NNW,328,0.0,2.0,87,0.00,,,0.00,61.000000,,2013-10-29 14:32:00,
2013-10-29 09:42:00,18.0,15.0,-100.00,NNW,328,0.0,2.0,87,0.00,,,0.00,61.000000,,2013-10-29 14:42:00,
2013-10-29 09:52:00,18.0,15.0,-100.00,NNW,328,0.0,2.0,87,0.00,,,0.00,61.000000,,2013-10-29 14:52:00,
2013-10-29 10:02:00,18.0,15.0,-100.00,NNW,328,0.0,2.0,87,0.00,,,0.00,61.000000,,2013-10-29 15:02:00,
2013-10-29 10:22:00,28.0,22.0,-100.00,ESE,118,1.0,4.0,78,0.00,,,0.00,185.000000,,2013-10-29 15:22:00,
2013-10-29 10:33:00,28.0,22.0,-100.00,ESE,118,1.0,4.0,78,0.00,,,0.00,185.000000,,2013-10-29 15:33:00,
2013-10-29 10:44:00,28.0,22.0,-100.00,ESE,118,1.0,4.0,78,0.00,,,0.00,185.000000,,2013-10-29 15:44:00,
2013-10-29 10:54:00,28.0,22.0,-100.00,ESE,118,1.0,4.0,78,0.00,,,0.00,185.000000,,2013-10-29 15:54:00,
2013-10-29 11:03:00,28.0,22.0,-100.00,ESE,118,1.0,4.0,78,0.00,,,0.00,185.000000,,2013-10-29 16:03:00,
2013-10-29 11:43:00,32.0,25.0,-100.00,SSW,199,1.0,4.0,76,0.00,,,0.00,230.000000,,2013-10-29 16:43:00,
2013-10-29 11:53:00,32.0,25.0,-100.00,SSW,199,1.0,4.0,76,0.00,,,0.00,230.000000,,2013-10-29 16:53:00,
2013-10-29 12:02:00,32.0,25.0,-100.00,SSW,199,1.0,4.0,76,0.00,,,0.00,230.000000,,2013-10-29 17:02:00,
2013-10-29 12:42:00,35.0,24.0,-100.00,SW,224,4.0,6.0,65,0.00,,,0.00,314.000000,,2013-10-29 17:42:00,
2013-10-29 12:52:00,35.0,24.0,-100.00,SW,224,4.0,6.0,65,0.00,,,0.00,314.000000,,2013-10-29 17:52:00,
2013-10-29 13:02:00,35.0,24.0,-100.00,SW,224,4.0,6.0,65,0.00,,,0.00,314.000000,,2013-10-29 18:02:00,
2013-10-29 13:22:00,37.0,22.0,-100.00,SW,216,5.0,11.0,55,0.00,,,0.00,408.000000,,2013-10-29 18:22:00,
2013-10-29 13:32:00,37.0,22.0,-100.00,SW,216,5.0,11.0,55,0.00,,,0.00,408.000000,,2013-10-29 18:32:00,
2013-10-29 13:42:00,37.0,22.0,-100.00,SW,216,5.0,11.0,55,0.00,,,0.00,408.000000,,2013-10-29 18:42:00,
2013-10-29 13:52:00,37.0,22.0,-100.00,SW,216,5.0,11.0,55,0.00,,,0.00,408.000000,,2013-10-29 18:52:00,
2013-10-29 14:02:00,37.0,22.0,-100.00,SW,216,5.0,11.0,55,0.00,,,0.00,408.000000,,2013-10-29 19:02:00,
2013-10-29 14:22:00,40.0,20.0,-100.00,SW,229,6.0,13.0,44,0.00,,,0.00,455.000000,,2013-10-29 19:22:00,
2013-10-29 14:32:00,40.0,20.0,-100.00,SW,229,6.0,13.0,44,0.00,,,0.00,455.000000,,2013-10-29 19:32:00,
2013-10-29 14:42:00,40.0,20.0,-100.00,SW,229,6.0,13.0,44,0.00,,,0.00,455.000000,,2013-10-29 19:42:00,
2013-10-29 14:53:00,40.0,20.0,-100.00,SW,229,6.0,13.0,44,0.00,,,0.00,455.000000,,2013-10-29 19:53:00,
2013-10-29 15:02:00,40.0,20.0,-100.00,SW,229,6.0,13.0,44,0.00,,,0.00,455.000000,,2013-10-29 20:02:00,
2013-10-29 15:22:00,38.0,18.0,-100.00,SW,215,9.0,14.0,43,0.00,,,0.00,422.000000,,2013-10-29 20:22:00,
2013-10-29 15:32:00,38.0,18.0,-100.00,SW,215,9.0,14.0,43,0.00,,,0.00,422.000000,,2013-10-29 20:32:00,
2013-10-29 15:43:00,38.0,18.0,-100.00,SW,215,9.0,14.0,43,0.00,,,0.00,422.000000,,2013-10-29 20:43:00,
2013-10-29 15:52:00,38.0,18.0,-100.00,SW,215,9.0,14.0,43,0.00,,,0.00,422.000000,,2013-10-29 20:52:00,
2013-10-29 16:01:00,38.0,18.0,-100.00,SW,215,9.0,14.0,43,0.00,,,0.00,422.000000,,2013-10-29 21:01:00,
2013-10-29 16:04:00,37.0,19.0,-100.00,SW,226,7.0,14.0,48,0.00,,,0.00,203.000000,,2013-10-29 21:04:00,
2013-10-29 16:22:00,37.0,19.0,-100.00,SW,226,7.0,14.0,48,0.00,,,0.00,203.000000,,2013-10-29 21:22:00,
2013-10-29 16:34:00,37.0,19.0,-100.00,SW,226,7.0,14.0,48,0.00,,,0.00,203.000000,,2013-10-29 21:34:00,
2013-10-29 16:43:00,37.0,19.0,-100.00,SW,226,7.0,14.0,48,0.00,,,0.00,203.000000,,2013-10-29 21:43:00,
2013-10-29 16:54:00,37.0,19.0,-100.00,SW,226,7.0,14.0,48,0.00,,,0.00,203.000000,,2013-10-29 21:54:00,
2013-10-29 17:43:00,36.0,19.0,-100.00,SW,222,5.0,11.0,50,0.00,,,0.00,131.000000,,2013-10-29 22:43:00,
2013-10-29 17:53:00,36.0,19.0,-100.00,SW,222,5.0,11.0,50,0.00,,,0.00,131.000000,,2013-10-29 22:53:00,
2013-10-29 18:03:00,36.0,19.0,-100.00,SW,222,5.0,11.0,50,0.00,,,0.00,131.000000,,2013-10-29 23:03:00,
2013-10-29 18:43:00,34.0,19.0,-100.00,SW,222,3.0,8.0,53,0.00,,,0.00,38.000000,,2013-10-29 23:43:00,
2013-10-29 18:53:00,34.0,19.0,-100.00,SW,222,3.0,8.0,53,0.00,,,0.00,38.000000,,2013-10-29 23:53:00,
2013-10-29 19:02:00,34.0,19.0,-100.00,SW,222,3.0,8.0,53,0.00,,,0.00,38.000000,,2013-10-30 00:02:00,
2013-10-29 19:22:00,31.0,19.0,-100.00,SSW,211,3.0,5.0,61,0.00,,,0.00,0.000000,,2013-10-30 00:22:00,
2013-10-29 19:32:00,31.0,19.0,-100.00,SSW,211,3.0,5.0,61,0.00,,,0.00,0.000000,,2013-10-30 00:32:00,
2013-10-29 19:42:00,31.0,19.0,-100.00,SSW,211,3.0,5.0,61,0.00,,,0.00,0.000000,,2013-10-30 00:42:00,
2013-10-29 19:52:00,31.0,19.0,-100.00,SSW,211,3.0,5.0,61,0.00,,,0.00,0.000000,,2013-10-30 00:52:00,
2013-10-29 20:01:00,31.0,19.0,-100.00,SSW,211,3.0,5.0,61,0.00,,,0.00,0.000000,,2013-10-30 01:01:00,
2013-10-29 20:42:00,29.0,19.0,-100.00,SW,215,3.0,5.0,66,0.00,,,-99.99,0.000000,,2013-10-30 01:42:00,
2013-10-29 20:52:00,29.0,19.0,-100.00,SW,215,3.0,5.0,66,0.00,,,-99.99,0.000000,,2013-10-30 01:52:00,
2013-10-29 21:02:00,29.0,19.0,-100.00,SW,215,3.0,5.0,66,0.00,,,-99.99,0.000000,,2013-10-30 02:02:00,
2013-10-29 21:42:00,26.0,20.0,-100.00,SSW,213,2.0,4.0,79,0.00,,,0.00,0.000000,,2013-10-30 02:42:00,
2013-10-29 21:52:00,26.0,20.0,-100.00,SSW,213,2.0,4.0,79,0.00,,,0.00,0.000000,,2013-10-30 02:52:00,
2013-10-29 22:02:00,26.0,20.0,-100.00,SSW,213,2.0,4.0,79,0.00,,,0.00,0.000000,,2013-10-30 03:02:00,
2013-10-29 22:44:00,29.0,24.0,-100.00,SSW,209,4.0,6.0,81,0.00,,,0.00,0.000000,,2013-10-30 03:44:00,
2013-10-29 22:54:00,29.0,24.0,-100.00,SSW,209,4.0,6.0,81,0.00,,,0.00,0.000000,,2013-10-30 03:54:00,
2013-10-29 23:03:00,29.0,24.0,-100.00,SSW,209,4.0,6.0,81,0.00,,,0.00,0.000000,,2013-10-30 04:03:00,
2013-10-29 23:44:00,29.0,23.0,-100.00,SSW,205,4.0,5.0,79,0.00,,,0.00,0.000000,,2013-10-30 04:44:00,
2013-10-29 23:53:00,29.0,23.0,-100.00,SSW,205,4.0,5.0,79,0.00,,,0.00,0.000000,,2013-10-30 04:53:00,